STARLINK-34829

Last updated on Thu Oct 02 2025 00:02:05 GMT+0000 (Coordinated Universal Time)

1 65470U 25195N 25274.50002315 -.01565038 00000+0 -37334-1 0 9990 2 65470 53.1589 280.6521 0001465 70.6650 88.6426 15.44163706 4958

Satellite not in orbit

STARLINK-34829